Stations météo

réclame
Mon MeteoGroup
Lahr, Allemagne (10805): Température de l'air & dewpoint: 19.09.2018 08:00:00 - 25.09.2018 08:00:00 (CEST)Lahr, Allemagne (10805): Température de l'air 5cm & Température de l'air -5cm: 19.09.2018 08:00:00 - 25.09.2018 08:00:00 (CEST)Lahr, Allemagne (10805): Température de l'air -20cm & Température de l'air -100cm: 19.09.2018 08:00:00 - 25.09.2018 08:00:00 (CEST)Lahr, Allemagne (10805): Vitesse du vent & gusts: 19.09.2018 08:00:00 - 25.09.2018 08:00:00 (CEST)Lahr, Allemagne (10805): Direction du vent: 19.09.2018 08:00:00 - 25.09.2018 08:00:00 (CEST)Lahr, Allemagne (10805): reduced air pressure: 19.09.2018 08:00:00 - 25.09.2018 08:00:00 (CEST)Lahr, Allemagne (10805): visibility: 19.09.2018 08:00:00 - 25.09.2018 08:00:00 (CEST)Lahr, Allemagne (10805): Ensoleillement: 19.09.2018 08:00:00 - 25.09.2018 08:00:00 (CEST)Lahr, Allemagne (10805): Quantités de précipitations: 19.09.2018 08:00:00 - 25.09.2018 08:00:00 (CEST)
Date & Time tt [°C] td [°C] tt 5cm [°C] tt -5cm [°C] tt -20cm [°C] tt -100cm [°C] ff [km/h] ff [knt] fx [km/h] fx [knt] dd ppp [hPa] vv [km] sd [min] rr [mm]
25.09.2018 08:00:00 3,0 2,7 1,9 5,9 13,5 19,3 5 3 8 5 NE 1037,5 11 10 0,0
25.09.2018 07:00:00 2,9 2,7 0,9 6,2 13,8 19,3 5 3 6 4 NE 1037,0 6 0 0,0
25.09.2018 06:00:00 3,3 2,6 1,4 6,6 14,1 19,3 4 2 8 5 N 1037,0 22 0 0,0
25.09.2018 05:00:00 3,5 2,9 1,8 7,1 14,4 19,3 5 3 7 4 NE 1037,3 26 0 0,0
25.09.2018 04:00:00 4,8 3,9 2,5 7,6 14,8 19,3 3 2 6 3 WNW 1037,0 45 0 0,0
25.09.2018 03:00:00 5,0 4,1 2,3 8,0 15,1 19,4 4 2 11 6 NE 1037,0 35 0 0,0
25.09.2018 02:00:00 4,9 4,0 3,7 8,5 15,5 19,4 6 3 9 5 N 1036,8 41 0 0,0
25.09.2018 01:00:00 5,3 4,2 2,9 9,1 15,9 19,4 5 3 9 5 NE 1036,6 35 0 0,0
25.09.2018 00:00:00 6,5 4,4 4,2 9,8 16,3 19,4 2 1 7 4 WNW 1036,2 66 0 0,0
24.09.2018 23:00:00 7,1 4,5 4,7 10,2 16,7 19,4 3 2 6 3 N 1036,0 70 0 0,0
24.09.2018 22:00:00 7,8 4,5 5,0 11,0 17,1 19,4 0 0 8 5 N 1035,7 56 0 0,0
24.09.2018 21:00:00 9,0 4,3 6,4 11,9 17,5 19,4 4 2 9 5 ENE 1035,1 70 0 0,0
24.09.2018 20:00:00 9,9 4,9 6,7 13,2 17,8 19,4 6 3 13 7 NNE 1034,6 70 1 0,0
24.09.2018 19:00:00 12,4 4,1 10,3 15,0 18,0 19,4 9 5 15 8 N 1033,8 70 46 0,0
24.09.2018 18:00:00 14,3 3,0 13,3 16,5 18,1 19,4 11 6 23 12 NNE 1033,5 10 34 0,0
24.09.2018 17:00:00 16,2 2,8 17,5 18,8 18,0 19,4 15 8 29 16 NNE 1033,3 10 56 0,0
24.09.2018 16:00:00 16,1 2,7 18,3 20,0 17,8 19,4 13 7 30 16 NNE 1033,4 43 56 0,0
24.09.2018 15:00:00 15,3 3,7 17,7 19,2 17,5 19,5 14 8 29 16 NNE 1033,6 70 42 0,0
24.09.2018 14:00:00 15,4 3,5 18,5 20,5 17,0 19,5 13 7 27 14 NNE 1034,0 10 52 0,0
24.09.2018 13:00:00 14,5 4,3 17,7 19,4 16,6 19,5 13 7 24 13 NE 1034,3 67 55 0,0
24.09.2018 12:00:00 13,5 5,3 16,3 18,2 16,3 19,5 15 8 26 14 NE 1034,6 28 57 0,0
24.09.2018 11:00:00 12,2 6,1 16,0 16,7 16,1 19,5 13 7 19 10 N 1034,5 47 59 0,0
24.09.2018 10:00:00 10,9 6,2 13,0 14,0 16,1 19,5 12 6 19 10 NNE 1033,9 37 60 0,0
24.09.2018 09:00:00 10,3 6,7 10,8 11,9 16,3 19,5 10 5 15 8 NE 1033,0 47 60 0,0
24.09.2018 08:00:00 9,3 6,5 8,0 11,5 16,5 19,5 9 5 14 8 NE 1032,2 66 7 0,0
24.09.2018 07:00:00 9,6 7,1 9,4 11,6 16,7 19,5 8 4 13 7 NE 1031,0 70 0 0,0
24.09.2018 06:00:00 9,6 7,1 9,2 11,5 17,0 19,5 10 5 12 7 NNE 1029,8 69 0 0,0
24.09.2018 05:00:00 9,7 6,6 9,3 11,6 17,4 19,5 11 6 22 12 NE 1029,0 70 0 0,0
24.09.2018 04:00:00 10,3 6,2 9,9 12,4 17,7 19,5 14 8 26 14 NNE 1028,2 70 0 0,0
24.09.2018 03:00:00 11,3 7,4 10,9 13,0 18,0 19,5 18 10 29 16 NNW 1027,4 30 0 0,0
24.09.2018 02:00:00 11,9 8,0 11,5 13,3 18,4 19,5 17 9 27 14 NNW 1026,2 70 0 0,0
24.09.2018 01:00:00 12,1 8,2 11,7 13,5 18,8 19,5 19 10 28 15 NNW 1024,6 70 0 0,0
24.09.2018 00:00:00 12,9 9,0 12,5 14,3 19,2 19,5 17 9 40 22 NNW 1023,1 70 0 0,0
23.09.2018 23:00:00 13,3 9,6 12,7 15,2 19,6 19,5 24 13 34 18 NNW 1020,9 70 0 0,0
23.09.2018 22:00:00 14,1 10,9 13,3 16,2 20,0 19,6 20 11 39 21 NNW 1019,2 70 0 0,1
23.09.2018 21:00:00 15,5 13,2 14,3 17,4 20,3 19,6 9 5 36 20 NNW 1016,5 70 0 1,2
23.09.2018 20:00:00 15,4 12,9 14,9 18,8 20,5 19,6 26 14 67 36 NW 1012,5 7 0 13,9
23.09.2018 19:00:00 23,9 15,8 23,4 22,0 20,5 19,6 21 11 49 26 SSW 1008,5 70 0 0,0
23.09.2018 18:00:00 24,1 16,0 23,9 22,4 20,4 19,6 39 21 53 29 SSW 1008,6 10 0 0,0
23.09.2018 17:00:00 24,4 16,0 24,3 23,0 20,3 19,6 33 18 58 32 SSW 1009,7 70 0 0,0
23.09.2018 16:00:00 24,5 16,5 25,0 23,7 20,0 19,6 36 19 59 32 SSW 1010,3 63 1 0,0
23.09.2018 15:00:00 24,8 15,8 26,1 25,4 19,6 19,6 36 19 56 30 SW 1011,5 26 45 0,0
23.09.2018 14:00:00 25,4 16,1 27,0 22,7 19,3 19,6 26 14 54 29 SW 1012,9 70 9 0,0
23.09.2018 13:00:00 22,6 15,6 23,2 22,1 19,0 19,6 27 15 48 26 SSW 1013,8 70 0 0,0
23.09.2018 12:00:00 22,6 15,0 23,5 23,1 18,7 19,6 32 17 50 27 SSW 1014,7 55 40 0,0
23.09.2018 11:00:00 21,5 14,6 22,1 19,6 18,5 19,6 25 13 48 26 SSW 1015,1 70 0 0,0
23.09.2018 10:00:00 20,5 13,6 20,4 18,6 18,4 19,6 26 14 44 24 SSW 1015,5 70 0 0,0
23.09.2018 09:00:00 19,5 12,6 19,3 17,9 18,4 19,6 18 10 39 21 SSW 1015,7 70 0 0,0
23.09.2018 08:00:00 19,1 12,0 18,7 17,4 18,4 19,6 19 10 - - SSW 1015,8 70 0 0,0
23.09.2018 07:00:00 18,8 12,2 18,3 17,2 18,4 19,7 20 11 42 23 SSW 1015,7 70 0 0,0
23.09.2018 06:00:00 18,7 11,7 18,3 17,0 18,4 19,7 23 12 47 26 SSW 1016,3 70 0 0,0
23.09.2018 05:00:00 18,7 8,9 18,1 16,6 18,5 19,7 19 10 34 19 SSW 1016,5 70 0 0,0
23.09.2018 04:00:00 17,5 9,0 16,9 16,2 18,6 19,7 18 10 34 18 SSW 1017,3 70 0 0,0
23.09.2018 03:00:00 16,4 9,4 15,8 15,9 18,7 19,7 15 8 30 16 S 1018,3 70 0 0,0
23.09.2018 02:00:00 15,9 8,4 15,2 15,8 18,9 19,7 18 10 29 16 S 1019,4 70 0 0,0
23.09.2018 01:00:00 14,3 8,9 13,5 16,0 19,1 19,7 3 2 16 9 S 1020,3 70 0 0,0
23.09.2018 00:00:00 14,1 8,6 13,3 16,1 19,4 19,7 7 4 14 8 ESE 1020,4 70 0 0,0
22.09.2018 23:00:00 14,0 9,0 12,0 16,9 19,6 19,7 8 4 36 19 S 1021,7 29 0 0,1
22.09.2018 22:00:00 14,7 10,7 13,9 17,7 19,8 19,7 8 4 9 5 S 1021,1 26 0 0,1
22.09.2018 21:00:00 15,5 8,9 13,5 18,5 19,9 19,7 4 2 9 5 NNW 1021,1 19 0 0,0
22.09.2018 20:00:00 17,1 5,3 15,8 19,4 20,0 19,7 5 3 12 6 NNW 1020,7 10 0 0,0
22.09.2018 19:00:00 17,9 6,8 17,2 20,7 20,1 19,7 5 3 8 5 W 1020,5 70 0 0,0
22.09.2018 18:00:00 18,8 4,8 19,7 22,1 19,9 19,7 7 4 17 9 W 1020,8 70 1 0,0
22.09.2018 17:00:00 19,1 4,7 21,0 23,8 19,6 19,7 13 7 26 14 W 1021,4 70 30 0,0
22.09.2018 16:00:00 20,0 4,7 23,2 24,9 19,1 19,7 14 7 28 15 WSW 1021,8 70 60 0,0
22.09.2018 15:00:00 18,9 6,0 22,5 24,6 18,7 19,7 10 5 22 12 WSW 1022,8 58 49 0,0
22.09.2018 14:00:00 17,4 7,4 21,8 23,8 18,1 19,7 9 5 22 12 SW 1023,2 70 55 0,0
22.09.2018 13:00:00 16,9 6,8 21,1 20,9 17,8 19,7 9 5 16 9 S 1024,1 52 49 0,0
22.09.2018 12:00:00 15,2 9,0 17,0 18,2 17,6 19,7 10 6 20 11 SW 1024,9 59 10 0,0
22.09.2018 11:00:00 14,6 10,4 16,0 16,4 17,5 19,7 14 7 21 11 SW 1025,0 57 18 0,0
22.09.2018 10:00:00 13,5 9,9 14,0 15,0 17,5 19,7 14 8 23 12 S 1025,0 47 14 0,0
22.09.2018 09:00:00 12,4 9,7 12,2 13,6 17,6 19,7 8 4 11 6 SSW 1025,1 58 13 0,0
22.09.2018 08:00:00 11,0 9,4 9,4 12,7 17,8 19,7 7 4 12 7 S 1024,9 50 1 0,0
22.09.2018 07:00:00 11,0 9,5 9,9 13,1 18,0 19,7 8 4 17 9 S 1024,2 44 0 0,0
22.09.2018 06:00:00 11,7 9,6 10,3 13,4 18,2 19,7 10 6 16 9 SSW 1024,7 51 0 0,0
22.09.2018 05:00:00 12,2 9,9 11,2 13,7 18,5 19,7 10 5 15 8 S 1024,1 47 0 0,0
22.09.2018 04:00:00 11,6 9,8 10,7 13,7 18,7 19,7 8 5 12 6 S 1024,1 50 0 0,0
22.09.2018 03:00:00 11,6 9,6 9,7 14,1 18,9 19,7 5 3 12 6 SSE 1024,0 52 0 0,0
22.09.2018 02:00:00 12,2 9,7 11,1 14,3 19,2 19,7 9 5 16 9 S 1023,5 63 0 0,0
22.09.2018 01:00:00 12,8 9,7 11,6 14,6 19,4 19,7 9 5 16 9 S 1023,1 68 0 0,0
22.09.2018 00:00:00 12,7 10,3 11,7 15,1 19,7 19,7 7 4 20 11 SSW 1022,6 70 0 0,0
21.09.2018 23:00:00 12,7 10,2 11,6 15,3 20,0 19,7 13 7 22 12 SSW 1021,9 69 0 0,0
21.09.2018 22:00:00 13,9 9,2 11,5 15,7 20,4 19,7 11 6 23 12 SSW 1021,1 70 0 0,0
21.09.2018 21:00:00 14,1 9,6 11,7 16,3 20,8 19,7 14 7 22 12 SSW 1020,2 70 0 0,0
21.09.2018 20:00:00 14,0 10,4 12,3 17,6 21,1 19,7 13 7 24 13 SSW 1019,1 10 0 0,0
21.09.2018 19:00:00 13,4 11,6 12,9 18,8 21,4 19,7 7 4 19 11 S 1018,1 70 0 0,9
21.09.2018 18:00:00 14,9 11,4 13,6 20,3 21,5 19,7 29 16 49 26 NW 1016,8 10 0 0,2
21.09.2018 17:00:00 19,0 12,1 19,5 22,8 21,5 19,7 37 20 47 26 NNW 1013,2 56 0 0,0
21.09.2018 16:00:00 24,9 9,2 24,6 23,7 21,3 19,7 29 16 42 23 SW 1011,1 10 0 0,0
21.09.2018 15:00:00 25,9 12,1 26,4 24,9 21,1 19,7 21 11 38 20 WSW 1010,9 10 0 0,0
21.09.2018 14:00:00 26,3 14,4 27,1 24,3 20,8 19,7 22 12 34 18 SW 1011,1 40 0 0,0
21.09.2018 13:00:00 25,5 13,7 25,4 23,6 20,5 19,7 19 10 34 18 SW 1011,1 46 0 0,0
21.09.2018 12:00:00 26,3 13,3 27,3 23,8 20,2 19,7 28 15 38 21 SSW 1011,1 10 23 0,0
21.09.2018 11:00:00 26,6 13,2 28,9 22,5 19,9 19,7 19 10 33 18 S 1011,3 30 43 0,0
21.09.2018 10:00:00 23,4 13,3 24,0 19,8 19,8 19,7 10 5 28 15 SSW 1011,3 40 15 0,0
21.09.2018 09:00:00 23,0 13,6 23,0 18,0 19,9 19,7 13 7 21 12 SSW 1011,2 33 58 0,0
21.09.2018 08:00:00 15,0 12,9 13,7 16,3 20,1 19,7 2 1 10 5 NW 1012,0 10 14 0,0
21.09.2018 07:00:00 14,4 12,4 13,0 16,5 20,4 19,7 9 5 11 6 SW 1012,2 13 0 0,0
21.09.2018 06:00:00 14,5 12,3 12,6 16,7 20,7 19,7 6 3 12 6 SW 1012,4 18 0 0,0
21.09.2018 05:00:00 14,1 12,1 10,9 17,0 21,0 19,7 4 2 5 3 W 1012,9 18 0 0,0
21.09.2018 04:00:00 14,8 12,4 11,8 17,5 21,2 19,7 4 2 8 4 ESE 1013,4 16 0 0,0
21.09.2018 03:00:00 15,0 12,5 12,8 18,1 21,5 19,7 5 3 9 5 W 1013,7 19 0 0,0
21.09.2018 02:00:00 16,1 12,6 13,4 18,6 21,9 19,7 5 3 10 6 WSW 1014,0 22 0 0,0
21.09.2018 01:00:00 16,7 12,8 14,1 19,2 22,2 19,7 6 3 11 6 SSW 1014,3 23 0 0,0
21.09.2018 00:00:00 18,4 12,2 15,5 19,8 22,6 19,7 8 4 12 6 SSW 1014,6 26 0 0,0
20.09.2018 23:00:00 19,1 12,3 17,1 20,5 22,9 19,7 9 5 11 6 S 1014,8 28 0 0,0
20.09.2018 22:00:00 19,2 13,6 16,5 21,5 23,3 19,6 9 5 11 6 WNW 1015,3 24 0 0,0
20.09.2018 21:00:00 19,9 14,0 15,9 22,9 23,6 19,6 0 0 4 2 N 1015,5 28 0 0,0
20.09.2018 20:00:00 22,8 13,9 18,2 24,8 23,7 19,6 2 1 6 3 ESE 1015,2 22 5 0,0
20.09.2018 19:00:00 27,5 13,2 25,0 27,5 23,7 19,6 3 2 9 5 NNW 1015,1 34 60 0,0
20.09.2018 18:00:00 29,3 11,8 29,4 29,6 23,4 19,6 5 3 14 8 WSW 1015,5 40 60 0,0
20.09.2018 17:00:00 29,4 11,8 31,0 31,2 23,0 19,6 8 4 16 9 SSW 1016,1 40 60 0,0
20.09.2018 16:00:00 29,3 11,8 32,2 32,0 22,5 19,6 10 6 18 10 WSW 1016,7 40 60 0,0
20.09.2018 15:00:00 28,9 11,8 32,9 31,9 21,8 19,6 5 3 17 9 S 1017,5 33 60 0,0
20.09.2018 14:00:00 28,5 12,7 32,7 30,9 21,1 19,6 9 5 16 9 SSW 1018,4 43 60 0,0
20.09.2018 13:00:00 27,1 13,9 32,1 28,9 20,5 19,6 6 3 14 8 SW 1019,3 25 60 0,0
20.09.2018 12:00:00 25,3 14,3 29,9 26,1 20,0 19,6 8 5 18 10 SSW 1020,0 27 60 0,0
20.09.2018 11:00:00 23,3 14,7 26,7 23,1 19,8 19,6 8 5 15 8 SW 1020,4 25 60 0,0
20.09.2018 10:00:00 20,8 14,5 23,5 20,0 19,7 19,6 8 4 9 5 SW 1020,6 10 60 0,0
20.09.2018 09:00:00 18,4 14,2 18,7 17,3 19,9 19,6 0 0 5 3 N 1020,7 17 53 0,0
20.09.2018 08:00:00 14,4 12,9 12,7 16,4 20,1 19,6 0 0 4 2 NNE 1020,9 13 13 0,0
20.09.2018 07:00:00 13,3 12,4 11,1 16,6 20,3 19,6 3 2 5 3 WSW 1020,7 15 0 0,0
20.09.2018 06:00:00 14,1 13,5 11,7 17,0 20,6 19,6 0 0 7 4 N 1020,4 12 0 0,0
20.09.2018 05:00:00 14,0 13,2 12,0 17,3 20,9 19,6 2 1 3 2 NNW 1020,2 14 0 0,0
20.09.2018 04:00:00 15,1 13,4 12,8 17,8 21,2 19,6 5 3 8 4 W 1020,2 19 0 0,0
20.09.2018 03:00:00 15,0 13,8 13,2 18,3 21,5 19,6 2 1 9 5 NNW 1020,2 14 0 0,0
20.09.2018 02:00:00 16,3 14,1 13,7 18,8 21,8 19,6 5 3 8 5 W 1020,2 20 0 0,0
20.09.2018 01:00:00 16,1 13,9 13,3 19,5 22,1 19,6 3 2 9 5 E 1020,2 25 0 0,0
20.09.2018 00:00:00 19,2 14,3 16,4 20,2 22,4 19,6 5 3 10 6 WNW 1019,9 31 0 0,0
19.09.2018 23:00:00 19,4 14,5 16,2 21,1 22,7 19,6 3 2 11 6 W 1019,6 36 0 0,0
19.09.2018 22:00:00 19,9 15,3 17,9 21,9 23,0 19,6 6 3 10 5 NW 1019,4 29 0 0,0
19.09.2018 21:00:00 20,8 15,0 17,8 23,2 23,3 19,6 4 2 8 4 NW 1019,0 41 0 0,0
19.09.2018 20:00:00 24,6 14,7 21,9 25,0 23,4 19,6 7 4 8 5 SSE 1018,3 42 8 0,0
19.09.2018 19:00:00 28,3 14,3 26,8 27,4 23,3 19,6 5 3 9 5 SSW 1018,0 52 60 0,0
19.09.2018 18:00:00 29,5 13,5 29,8 29,3 23,0 19,6 7 4 16 9 WSW 1017,9 54 60 0,0
19.09.2018 17:00:00 29,9 12,7 31,4 30,7 22,6 19,6 11 6 22 12 WSW 1018,2 68 60 0,0
19.09.2018 16:00:00 30,0 13,5 33,1 31,6 22,0 19,6 9 5 21 11 SW 1018,3 10 60 0,0
19.09.2018 15:00:00 29,5 13,9 33,1 31,3 21,4 19,6 11 6 19 10 SSW 1018,7 10 60 0,0
19.09.2018 14:00:00 28,2 13,9 33,3 30,2 20,7 19,6 9 5 19 10 WSW 1019,3 10 60 0,0
19.09.2018 13:00:00 27,3 13,9 31,5 28,3 20,1 19,6 13 7 18 10 SSW 1019,7 10 60 0,0
19.09.2018 12:00:00 25,0 13,7 29,9 25,9 19,6 19,6 5 3 14 7 SW 1020,3 10 58 0,0
19.09.2018 11:00:00 21,8 13,4 26,3 22,5 19,3 19,6 8 4 13 7 SW 1020,7 10 60 0,0
19.09.2018 10:00:00 20,0 13,4 22,2 19,4 19,2 19,6 10 5 17 9 S 1020,6 35 60 0,0
19.09.2018 09:00:00 17,7 14,0 19,2 17,1 19,3 19,6 5 3 8 5 NW 1020,5 34 60 0,0
19.09.2018 08:00:00 14,5 12,9 13,7 15,8 19,6 19,6 8 4 9 5 SE 1020,2 10 17 0,0

tt = Température de l'air
td = dewpoint
tt 5cm = Température de l'air 5cm
tt -5cm = Température de l'air -5cm
tt -20cm = Température de l'air -20cm
tt -100cm = Température de l'air -100cm
ff = Vitesse du vent
fx = gusts
dd = Direction du vent
ppp = reduced air pressure
vv = visibility
sd = Ensoleillement
rr = Quantités de précipitations

stations d'obs. à proximité